This demonstration page uses our WeatherBlox Daily Observations layout. Learn more.

Left ArrowRight Arrow

Hourly Observations for September 15, 2020

Temp ( °F °C ) Dew Point ( °F °C ) Humidity (%) Winds ( mph kmh ) Pressure ( in mb ) Visibility ( mi km ) Precip ( " mm )
12:15 am 00:15 Clear 61 15.9 55 13 83 83 SSE 8 13 30.19 1022 10 16 N/A
12:35 am 00:35 Clear 60 15.6 55 12.7 83 83 SSE 7 11 30.19 1022 10 16 N/A
12:55 am 00:55 Clear 59 15 55 12.5 85 85 S 6 9 30.20 1023 10 16 N/A
1:15 am 01:15 Clear 59 14.8 55 12.6 87 87 S 7 11 30.20 1023 10 16 N/A
1:35 am 01:35 Clear 58 14.5 55 12.5 88 88 S 7 11 30.19 1022 10 16 N/A
1:55 am 01:55 Clear 58 14.2 55 12.5 90 90 S 7 11 30.20 1023 10 16 N/A
2:15 am 02:15 Clear 57 14 54 12.2 89 89 S 6 9 30.20 1023 10 16 N/A
2:35 am 02:35 Clear 57 13.9 54 12.1 89 89 S 7 11 30.20 1023 10 16 N/A
2:55 am 02:55 Clear 56 13.5 54 12 91 91 S 7 11 30.19 1022 10 16 N/A
3:15 am 03:15 Clear 56 13.6 54 12.3 92 92 S 7 11 30.20 1023 10 16 N/A
3:35 am 03:35 Clear 57 14 54 12.3 90 90 S 7 11 30.20 1023 10 16 N/A
3:55 am 03:55 Clear 57 14 54 12.3 90 90 S 7 11 30.20 1023 10 16 N/A
4:15 am 04:15 Clear 57 14 54 12.4 90 90 S 6 9 30.19 1022 10 16 N/A
4:35 am 04:35 Clear 56 13.5 54 12.1 91 91 S 5 7 30.18 1022 10 16 N/A
4:55 am 04:55 Clear 56 13.5 54 12.1 91 91 S 6 9 30.17 1022 10 16 N/A
5:15 am 05:15 Clear 56 13.2 54 12 93 93 SSW 7 11 30.17 1022 10 16 N/A
5:35 am 05:35 Clear 56 13.2 54 12 93 93 SSW 6 9 30.17 1022 10 16 N/A
5:55 am 05:55 Clear 56 13.5 54 12.1 91 91 SSW 8 13 30.18 1022 10 16 N/A
6:15 am 06:15 Clear 56 13.5 54 12.1 91 91 SSW 7 11 30.17 1022 10 16 N/A
6:35 am 06:35 Clear 57 13.7 54 12.1 90 90 SSW 7 11 30.18 1022 10 16 N/A
6:55 am 06:55 Clear 56 13.5 54 12 91 91 SSW 9 15 30.18 1022 10 16 N/A
7:15 am 07:15 Clear 56 13.5 53 11.8 90 90 SSW 6 9 30.17 1022 10 16 N/A
7:35 am 07:35 Sunny 56 13.2 53 11.8 91 91 SSW 7 11 30.17 1022 10 16 N/A
7:55 am 07:55 Sunny 56 13.5 54 12 91 91 SSW 6 9 30.18 1022 10 16 N/A
8:15 am 08:15 Sunny 57 13.7 54 12 90 90 SSW 5 7 30.18 1022 10 16 N/A
8:35 am 08:35 Sunny 58 14.5 55 12.5 88 88 SSW 9 15 30.17 1022 10 16 N/A
8:55 am 08:55 Sunny 60 15.5 55 13 85 85 SSW 12 19 30.15 1021 10 16 N/A
9:15 am 09:15 Sunny 61 16.2 56 13.3 83 83 SSW 9 15 30.15 1021 10 16 N/A
9:35 am 09:35 Sunny 63 17.1 56 13.5 80 80 SSW 12 19 30.14 1021 10 16 N/A
9:55 am 09:55 Sunny 65 18.4 57 13.8 75 75 S 10 17 30.13 1020 10 16 N/A
10:15 am 10:15 Sunny 67 19.2 57 13.8 71 71 SSW 16 26 30.11 1020 10 16 N/A
10:35 am 10:35 Sunny 68 20.1 57 14 68 68 SSW 13 20 30.11 1019 10 16 N/A
10:55 am 10:55 Sunny 69 20.8 57 14 65 65 S 14 22 30.10 1019 10 16 N/A
11:15 am 11:15 Sunny 71 21.6 57 14.1 62 62 S 13 20 30.09 1019 10 16 N/A
11:35 am 11:35 Sunny 72 22.2 57 14.1 60 60 S 12 19 30.08 1019 10 16 N/A
11:55 am 11:55 Sunny 73 23 57 14.1 57 57 S 12 19 30.06 1018 10 16 N/A
12:15 pm 12:15 Sunny 75 24 57 13.7 53 53 S 14 22 30.04 1017 10 16 N/A
12:35 pm 12:35 Sunny 76 24.6 57 14 52 52 S 14 22 30.03 1017 10 16 N/A
12:55 pm 12:55 Sunny 78 25.5 56 13.4 47 47 SSW 14 22 30.01 1016 10 16 N/A
1:15 pm 13:15 Sunny 78 25.6 56 13.2 46 46 S 17 28 30.00 1016 10 16 N/A
1:35 pm 13:35 Sunny 79 26.2 56 13.5 46 46 S 14 22 30.00 1016 10 16 N/A
1:55 pm 13:55 Sunny 79 26.3 56 13.2 44 44 S 14 22 29.99 1015 10 16 N/A
2:15 pm 14:15 Sunny 80 26.8 55 12.8 42 42 S 13 20 29.99 1016 10 16 N/A
2:35 pm 14:35 Sunny 81 27.2 54 12.4 40 40 S 13 20 29.97 1015 10 16 N/A
2:55 pm 14:55 Sunny 81 27.2 53 11.8 38 38 S 13 20 29.97 1015 10 16 N/A
3:15 pm 15:15 Sunny 81 27.4 53 11.7 38 38 S 12 19 29.97 1015 10 16 N/A
3:35 pm 15:35 Sunny 82 27.6 53 11.6 37 37 S 10 17 29.96 1014 10 16 N/A
3:55 pm 15:55 Sunny 82 27.9 53 11.6 36 36 S 14 22 29.94 1014 10 16 N/A
4:15 pm 16:15 Sunny 82 28 53 11.7 36 36 S 14 22 29.94 1014 10 16 N/A
4:35 pm 16:35 Sunny 82 28 52 11.3 35 35 S 12 19 29.93 1014 10 16 N/A
4:55 pm 16:55 Sunny 82 27.7 52 11.2 36 36 S 10 17 29.92 1013 10 16 N/A
5:15 pm 17:15 Sunny 82 27.8 52 11.3 36 36 S 8 13 29.92 1013 10 16 N/A
5:35 pm 17:35 Sunny 82 27.5 53 11.4 37 37 S 10 17 29.92 1013 10 16 N/A
5:55 pm 17:55 Sunny 81 27 54 12 39 39 S 7 11 29.92 1013 10 16 N/A
6:15 pm 18:15 Sunny 80 26.4 54 12.1 41 41 S 8 13 29.92 1013 10 16 N/A
6:35 pm 18:35 Sunny 78 25.5 55 12.5 44 44 SSE 5 7 29.92 1013 10 16 N/A
6:55 pm 18:55 Sunny 76 24.3 55 12.7 48 48 SSE 5 7 29.93 1014 10 16 N/A
7:15 pm 19:15 Sunny 73 22.8 56 13.1 54 54 SSE 5 7 29.94 1014 10 16 N/A
7:35 pm 19:35 Sunny 71 21.6 56 13.1 59 59 SSE 5 7 29.94 1014 10 16 N/A
7:55 pm 19:55 Clear 68 20.1 56 13.2 65 65 SSE 6 9 29.96 1014 10 16 N/A
8:15 pm 20:15 Clear 67 19.5 55 13 66 66 SSE 6 9 29.96 1015 10 16 N/A
8:35 pm 20:35 Clear 67 19.4 55 12.8 66 66 SSE 6 9 29.96 1015 10 16 N/A
8:55 pm 20:55 Clear 66 18.7 55 12.7 68 68 S 6 9 29.98 1015 10 16 N/A
9:15 pm 21:15 Clear 65 18.1 55 12.6 70 70 S 6 9 29.98 1015 10 16 N/A
9:35 pm 21:35 Clear 63 17.4 55 12.6 74 74 S 6 9 29.99 1016 10 16 N/A
9:55 pm 21:55 Clear 63 17.1 55 12.5 75 75 S 6 9 29.99 1016 10 16 N/A
10:15 pm 22:15 Clear 63 17 54 12.3 74 74 S 6 9 29.99 1016 10 16 N/A
10:35 pm 22:35 Clear 61 16.2 54 12.1 77 77 S 6 9 30.00 1016 10 16 N/A
10:55 pm 22:55 Clear 60 15.8 54 12 78 78 S 6 9 29.99 1016 10 16 N/A
11:15 pm 23:15 Clear 60 15.3 54 12 81 81 S 5 7 30.01 1016 10 16 N/A
11:35 pm 23:35 Clear 60 15.3 53 11.9 80 80 S 5 7 30.01 1016 10 16 N/A
11:55 pm 23:55 Clear 59 15.1 53 11.7 80 80 S 3 6 30.01 1016 10 16 N/A

Powered by AerisWeather